Weather in Novoye Mashezero

Russia / Republic of Karelia     64°24′30″N   33°24′46″E
В апреле 2022 года жителям России запретили посещать сайт meteo.paraplan.net по решению Генеральной прокуратуры. Аудитория сайта уменьшилась в 10 раз. Владельцы сайта не видят смысла в поддержке погодного сервера в таких условиях. Сайт будет закрыт в октябре.
temp.,
°C
wind,
m/s
gust,
m/s
humid.,
%
clouds,
%
prec.,
mm/h
press.,
hPa
HPBL,
m
4 october, tue
tue400:00+4ene3981100 0.0 1013350
03:00+4ne41182100 0.0 1012439
06:00+4ne51292100 1.8 1010627
09:00+5ne41097100 8.4 1009824
12:00+5ene2597100 1.6 1009414
15:00+6se139477 1.6 1009282
18:00+6ene1197100 0.0 101016
21:00+7se2598100 0.0 1011143
5 october, wed
wed500:00+6sse239845 0.0 101155
03:00+6sse229874 0.0 101150
06:00+7se2498100 0.0 1010108
09:00+7sse269613 0.0 1010224
12:00+10s358455 0.0 1010510
15:00+11s348199 0.0 1009654
18:00+9sse2694100 0.1 1010217
21:00+8s2696100 0.1 1009258
6 october, thu
thu600:00+7s27915 0.0 1009255
03:00+5s4118737 0.0 1008383
06:00+4sse51492100 0.0 1006438
09:00+7s61591100 0.0 1002713
12:00+8s81893100 1.1 998949
15:00+10ssw71694100 2.4 9951022
18:00+10ssw61394100 1.9 993934
21:00+8w4986100 2.8 994438
7 october, fri
fri700:00+7wsw41190100 0.0 995459
03:00+6wsw4138690 0.0 995493
06:00+7w51086100 0.0 996927
09:00+7w5118395 0.1 997873
12:00+7w5107868 0.1 999973
15:00+8w51179100 0.1 10011005
18:00+7wsw4128473 0.0 1003623
21:00+7wsw4118898 0.1 1005727
8 october, sat
sat800:00+5sw411915 0.1 1006407
03:00+4ssw31096100 0.1 1005326
06:00+6s41294100 0.0 1003483
09:00+8s51393100 0.3 1001640
12:00+10ssw61391100 0.4 9991088
15:00+10ssw71387100 0.4 9981042
18:00+9ssw71487100 0.4 9961439
21:00+9ssw61387100 1.4 995966